EW0220 Weather Reports


time (UTC)temp
C
wind
direction
speed
KPH
gust
KPH
rain 1hr
cm
rain 24hr
cm
rain mn
cm
humidity
%
barometer
mb
20260510190106 27 318 3.2 6.4 0.00 0.00 0.00 48 1015.0
20260510184606 27 322 3.2 6.4 0.00 0.00 0.00 48 1015.1
20260510183056 27 357 0.0 6.4 0.00 0.00 0.00 50 1015.0
20260510181606 27 221 0.0 4.8 0.00 0.00 0.00 54 1014.9
20260510180058 26 328 3.2 8.0 0.00 0.00 0.00 54 1015.1
20260510174558 27 79 0.0 4.8 0.00 0.00 0.00 49 1015.2
20260510173050 26 89 3.2 8.0 0.00 0.00 0.00 52 1015.4
20260510171607 27 242 0.0 4.8 0.00 0.00 0.00 53 1015.6
20260510170050 26 326 1.6 6.4 0.00 0.00 0.00 52 1015.7
20260510164547 26 319 0.0 4.8 0.00 0.00 0.00 54 1015.8
20260510163050 26 214 1.6 6.4 0.00 0.00 0.00 53 1015.7
20260510161538 26 338 0.0 9.7 0.00 0.00 0.00 54 1015.8
20260510160040 25 345 1.6 4.8 0.00 0.00 0.00 56 1015.8
20260510154535 25 289 0.0 6.4 0.00 0.00 0.00 55 1015.7
20260510153039 25 127 0.0 3.2 0.00 0.00 0.00 55 1015.6
20260510151529 24 110 0.0 1.6 0.00 0.00 0.00 61 1015.5
20260510150027 23 239 1.6 4.8 0.00 0.00 0.00 60 1015.4
20260510144624 22 158 0.0 4.8 0.00 0.00 0.00 67 1015.3
20260510143017 21 143 0.0 3.2 0.00 0.00 0.00 71 1015.3
20260510141514 20 146 1.6 4.8 0.00 0.00 0.00 72 1015.4
20260510140011 20 157 0.0 3.2 0.00 0.00 0.00 77 1015.2
20260510134509 19 210 0.0 4.8 0.00 0.00 0.00 77 1015.3
20260510133005 17 174 0.0 3.2 0.00 0.00 0.00 84 1015.3
20260510131501 16 190 3.2 4.8 0.00 0.00 0.00 86 1015.3
20260510130058 16 236 1.6 3.2 0.00 0.00 0.00 89 1015.4
20260510124557 15 170 0.0 3.2 0.00 0.00 0.00 93 1015.3
20260510123053 13 133 0.0 1.6 0.00 0.00 0.00 94 1015.1
20260510121551 12 6 0.0 3.2 0.00 0.00 0.00 95 1015.0
20260510120048 11 165 0.0 0.0 0.00 0.00 0.00 95 1014.7
20260510114556 11 160 0.0 0.0 0.00 0.00 0.00 94 1014.6
20260510113049 11 160 0.0 0.0 0.00 0.00 0.00 95 1014.3
20260510111544 10 333 0.0 0.0 0.00 0.00 0.00 95 1014.1
20260510110050 10 334 0.0 0.0 0.00 0.00 0.00 95 1013.9
20260510104540 10 335 0.0 0.0 0.00 0.00 0.00 96 1013.4
20260510103042 10 335 0.0 0.0 0.00 0.00 0.00 94 1013.3
20260510101535 10 335 0.0 0.0 0.00 0.00 0.00 95 1013.2
20260510100045 10 129 0.0 0.0 0.00 0.00 0.00 95 1012.9
20260510094538 10 129 0.0 0.0 0.00 0.00 0.00 94 1012.6
20260510093031 10 129 0.0 0.0 0.00 0.00 0.00 93 1012.4
20260510091526 11 130 0.0 0.0 0.00 0.00 0.00 94 1012.5
20260510090027 11 130 0.0 0.0 0.00 0.00 0.00 94 1012.6
20260510084523 11 130 0.0 0.0 0.00 0.00 0.00 94 1012.3
20260510083020 11 131 0.0 0.0 0.00 0.00 0.00 94 1012.1
20260510081529 11 131 0.0 0.0 0.00 0.00 0.00 93 1012.1
20260510080036 11 131 0.0 0.0 0.00 0.00 0.00 93 1012.0
20260510074518 11 131 0.0 0.0 0.00 0.00 0.00 93 1012.0
20260510073030 11 96 0.0 0.0 0.00 0.00 0.00 93 1012.0
20260510071518 11 96 0.0 0.0 0.00 0.00 0.00 92 1012.1
20260510070013 12 96 0.0 0.0 0.00 0.00 0.00 92 1012.0
20260510064511 12 96 0.0 0.0 0.00 0.00 0.00 92 1011.8
20260510063008 12 96 0.0 0.0 0.00 0.00 0.00 92 1011.7
20260510061507 12 95 0.0 0.0 0.00 0.00 0.00 91 1011.6
20260510060018 13 96 0.0 0.0 0.00 0.00 0.00 91 1011.7
20260510054508 13 96 0.0 0.0 0.00 0.00 0.00 87 1011.6
20260510053101 13 96 0.0 0.0 0.00 0.00 0.00 86 1011.4
20260510051608 14 109 0.0 0.0 0.00 0.00 0.00 83 1011.4
20260510050106 13 112 0.0 0.0 0.00 0.00 0.00 83 1011.4
20260510044554 14 106 0.0 0.0 0.00 0.00 0.00 84 1011.4
20260510043053 14 106 0.0 0.0 0.00 0.00 0.00 83 1011.3
20260510041553 14 107 0.0 0.0 0.00 0.00 0.00 85 1011.5
20260510034552 15 125 0.0 0.0 0.00 0.00 0.00 84 1011.5
20260510033059 15 162 0.0 0.0 0.00 0.00 0.00 77 1011.5
20260510031552 15 162 0.0 0.0 0.00 0.00 0.00 79 1011.6
20260510030049 15 162 0.0 0.0 0.00 0.00 0.00 77 1011.5
20260510024548 16 162 0.0 0.0 0.00 0.00 0.00 75 1011.4
20260510023047 17 162 0.0 0.0 0.00 0.00 0.00 68 1011.2
20260510021635 18 162 0.0 0.0 0.00 0.00 0.00 71 1010.9
20260510020043 18 163 0.0 0.0 0.00 0.00 0.00 60 1010.8
20260510014552 20 163 0.0 0.0 0.00 0.00 0.00 57 1010.5
20260510013043 20 166 0.0 0.0 0.00 0.00 0.00 55 1010.3
20260510011538 20 162 0.0 0.0 0.00 0.00 0.00 58 1010.2
20260510010048 21 160 0.0 0.0 0.00 0.00 0.00 54 1010.1
20260510004538 22 160 0.0 0.0 0.00 0.00 0.00 52 1010.0
20260510003036 22 160 0.0 0.0 0.00 0.00 0.00 49 1009.8
20260510001536 23 166 0.0 0.0 0.00 0.00 0.00 50 1009.7
20260510000034 23 145 0.0 0.0 0.00 0.00 0.00 53 1009.5
20260509234534 25 150 0.0 3.2 0.00 0.00 0.00 42 1009.4
20260509233034 26 209 0.0 3.2 0.00 0.00 0.00 40 1009.2
20260509231531 26 242 0.0 4.8 0.00 0.00 0.00 37 1009.2
20260509230038 26 209 3.2 6.4 0.00 0.00 0.00 44 1009.2
20260509224530 27 84 0.0 3.2 0.00 0.00 0.00 43 1009.3
20260509223029 26 157 0.0 3.2 0.00 0.00 0.00 46 1009.4
20260509221528 27 66 1.6 8.0 0.00 0.00 0.00 45 1009.3
20260509220027 27 38 0.0 3.2 0.00 0.00 0.00 44 1009.2
20260509214526 27 113 1.6 4.8 0.00 0.00 0.00 42 1009.2
20260509213028 27 108 0.0 4.8 0.00 0.00 0.00 42 1009.1
20260509211526 27 20 0.0 3.2 0.00 0.00 0.00 40 1009.0
20260509210025 26 141 1.6 8.0 0.00 0.00 0.00 46 1009.0
20260509204525 27 226 0.0 4.8 0.00 0.00 0.00 47 1009.0
20260509203026 26 89 3.2 9.7 0.00 0.00 0.00 46 1009.2
20260509201522 27 354 0.0 3.2 0.00 0.00 0.00 45 1009.2
20260509200019 26 328 0.0 8.0 0.00 0.00 0.00 39 1009.4
20260509194530 26 177 3.2 6.4 0.00 0.00 0.00 43 1009.5
20260509193022 26 242 3.2 12.9 0.00 0.00 0.00 45 1009.7
20260509191519 26 124 3.2 20.9 0.00 0.00 0.00 46 1009.8